BEAR Weather Reports


Display with metric or nautical units.
time (UTC)temp
F
wind
direction
speed
MPH
gust
MPH
rain 1hr
in
rain 24hr
in
rain mn
in
humidity
%
barometer
mb
20260504081534 40 146 1.0 8.0 0.00 0.00 0.00 90 1009.6
20260504050007 40 197 0.0 6.0 0.00 0.00 0.00 65 1010.2
20260504044504 41 150 2.0 7.0 0.00 0.00 0.00 61 1010.4
20260504043002 41 190 1.0 4.0 0.00 0.00 0.00 58 1010.5
20260504041500 41 176 2.0 4.0 0.00 0.00 0.00 59 1010.7
20260504040124 40 190 2.0 6.0 0.00 0.00 0.00 59 1010.7
20260504034557 40 244 1.0 3.0 0.00 0.00 0.00 59 1010.6
20260504033101 39 186 1.0 5.0 0.00 0.00 0.00 59 1010.6
20260504031559 36 175 1.0 6.0 0.00 0.00 0.00 68 1010.4
20260504030057 35 173 2.0 3.0 0.00 0.00 0.00 70 1010.5
20260504024556 34 173 1.0 3.0 0.00 0.00 0.00 73 1010.5
20260504023100 35 174 1.0 3.0 0.00 0.00 0.00 72 1010.7
20260504021553 35 174 1.0 3.0 0.00 0.00 0.00 74 1010.8
20260504020052 35 174 1.0 3.0 0.00 0.00 0.00 71 1010.9
20260504014604 35 234 1.0 3.0 0.00 0.00 0.00 70 1011.0
20260504013054 35 234 1.0 3.0 0.00 0.00 0.00 72 1010.9
20260504011550 36 252 1.0 3.0 0.00 0.00 0.00 71 1010.6
20260504010053 36 252 1.0 3.0 0.00 0.00 0.00 72 1010.6
20260504004552 36 252 1.0 2.0 0.00 0.00 0.00 72 1010.5
20260504003055 37 252 1.0 3.0 0.00 0.00 0.00 68 1010.5
20260504001601 39 252 0.0 2.0 0.00 0.00 0.00 65 1010.2
20260504000047 40 252 0.0 0.0 0.00 0.00 0.00 65 1010.2
20260503234544 41 252 0.0 0.0 0.00 0.00 0.00 65 1010.1
20260503233044 42 252 0.0 1.0 0.00 0.00 0.00 64 1010.1
20260503231541 42 252 0.0 2.0 0.00 0.00 0.00 64 1010.0
20260503230041 43 252 0.0 3.0 0.00 0.00 0.00 57 1010.0
20260503224540 43 296 0.0 3.0 0.00 0.00 0.00 55 1010.0
20260503223038 43 298 1.0 6.0 0.00 0.00 0.00 54 1010.0
20260503221539 44 281 1.0 7.0 0.00 0.00 0.00 52 1009.9
20260503220037 44 259 2.0 6.0 0.00 0.00 0.00 53 1009.9
20260503214537 44 323 2.0 5.0 0.00 0.00 0.00 53 1009.7
20260503213033 43 219 2.0 5.0 0.00 0.00 0.00 54 1009.9
20260503211533 43 288 1.0 4.0 0.00 0.00 0.00 54 1009.7
20260503210031 43 311 1.0 4.0 0.00 0.00 0.00 56 1009.7
20260503204531 43 306 2.0 5.0 0.00 0.00 0.00 57 1009.7
20260503203100 43 244 1.0 8.0 0.00 0.00 0.00 58 1009.7
20260503201558 43 360 3.0 8.0 0.00 0.00 0.00 56 1009.7
20260503200059 42 284 2.0 5.0 0.00 0.00 0.00 59 1009.9
20260503194555 42 302 2.0 8.0 0.00 0.00 0.00 60 1010.2
20260503193059 42 318 2.0 10.0 0.00 0.00 0.00 60 1010.1
20260503191603 42 303 4.0 9.0 0.00 0.00 0.00 60 1010.4
20260503190048 41 300 4.0 8.0 0.00 0.00 0.00 61 1010.4
20260503184547 41 297 3.0 8.0 0.00 0.00 0.00 61 1010.5
20260503183107 41 329 2.0 4.0 0.00 0.00 0.00 61 1010.6
20260503181613 42 28 2.0 6.0 0.00 0.00 0.00 60 1010.5
20260503180043 41 324 3.0 9.0 0.00 0.00 0.00 60 1010.5
20260503174543 41 346 3.0 8.0 0.00 0.00 0.00 60 1010.5
20260503173045 41 286 3.0 9.0 0.00 0.00 0.00 60 1010.6
20260503171540 41 295 5.0 8.0 0.00 0.00 0.00 61 1010.6
20260503150106 42 324 2.0 7.0 0.00 0.00 0.00 60 1011.2